[[{"header":{"parameterUnit":"m.s-1","parameterCategory":1,"la1":30.2991,"la2":30.254,"lo1":-89.0895,"lo2":-89.0444,"dy":0.0017,"dx":0.0017,"nx":28,"ny":28,"refTime":"2025-11-30T09:00:00:Z","depth":0,"parameterNumber":2,"parameterNumberName":"U-component_of_WINDS"},"data":[0,0,0,0,0,0,0,0,0,0,0,0,0,0,0,0,0,0,0,0,0,0,0,0,0,0,0,0,0,0,0,0,0,0,0,0,0,0,0,0,0,0,0,0,0,0,0,0,0,0,0,0,0,0,0,0,0,0,-3.1031,-3.1032,0,-3.1141,-3.1142,-3.1143,-3.11,-3.1097,-3.1095,-3.1092,-3.1213,-3.1219,-3.1224,0,0,0,0,0,0,0,0,0,0,0,0,0,-3.0792,-3.0797,-3.1031,-3.1032,-3.1034,-3.114,-3.1142,-3.1144,-3.11,-3.1097,-3.1094,-3.1091,-3.1211,-3.1218,-3.1225,0,0,0,0,0,0,0,0,0,0,0,0,0,-3.0899,-3.0798,-3.1031,-3.1025,-3.1025,-3.114,-3.1142,-3.1144,-3.1101,-3.1097,-3.1093,-3.109,-3.1209,-3.1217,-3.1226,-3.1355,0,0,-3.1251,-3.1255,0,0,0,0,0,0,0,0,-3.0893,-3.0907,-3.1024,-3.1025,-3.1026,-3.1102,-3.1102,-3.1215,-3.1102,-3.1073,-3.1092,-3.1088,-3.118,-3.1191,-3.122,-3.1361,-3.1366,-3.1252,-3.1257,-3.1261,-3.1263,0,0,0,0,0,0,0,-3.0885,-3.0902,-3.1075,-3.1026,-3.1027,-3.1019,-3.103,-3.1123,-3.1147,-3.1075,-3.1072,-3.1085,-3.118,-3.1212,-3.1223,-3.1368,-3.1252,-3.1259,-3.1265,-3.1268,-3.1622,-3.1626,0,0,0,0,0,0,-3.0876,-3.0897,-3.1071,-3.1078,-3.0948,-3.1027,-3.1039,-3.1082,-3.1146,-3.1152,-3.1088,-3.1083,-3.1199,-3.1213,-3.1227,-3.1382,-3.1261,-3.1269,-3.1274,-3.1617,-3.1623,-3.1627,0,0,0,0,0,0,-3.0872,-3.0892,-3.1067,-3.0986,-3.1008,-3.1035,-3.1084,-3.1086,-3.1118,-3.1156,-3.1161,-3.1116,-3.1197,-3.1215,-3.1323,-3.1385,-3.1273,-3.128,-3.1612,-3.1619,-3.1625,-3.1694,0,0,0,0,0,0,-3.0865,-3.0891,-3.0938,-3.0988,-3.1012,-3.1159,-3.1088,-3.1091,-3.1132,-3.1125,-3.1183,-3.1189,-3.1195,-3.1311,-3.1331,-3.1395,-3.1287,-3.1607,-3.1615,-3.1623,-3.1686,-3.1702,-3.1715,0,0,0,0,0,-3.0856,-3.0955,-3.0941,-3.0962,-3.1072,-3.1162,-3.1177,-3.1179,-3.1137,-3.1186,-3.1211,-3.1187,-3.1376,-3.1322,-3.1345,-3.1412,-3.1603,-3.1613,-3.1622,-3.1679,-3.1699,-3.1715,0,0,0,0,0,0,-3.0915,-3.0961,-3.0946,-3.1063,-3.1109,-3.1155,-3.1216,-3.12,-3.126,-3.1252,-3.1256,-3.1269,-3.1381,-3.1408,-3.1347,-3.1542,-3.1483,-3.1498,-3.1519,-3.1537,-3.1552,-3.1542,-3.1294,0,0,0,0,0,-3.0941,-3.1008,-3.1046,-3.1146,-3.117,-3.119,-3.1229,-3.1227,-3.1276,-3.1295,-3.1328,-3.1378,-3.1449,-3.1495,-3.1562,-3.1691,-3.1703,-3.1749,-3.1763,-3.1775,-3.1787,-3.1857,-3.1878,-3.1659,-3.1659,-3.1659,0,0,-3.0997,-3.103,-3.1073,-3.1159,-3.1194,-3.1265,-3.1206,-3.1284,-3.1338,-3.1308,-3.1411,-3.1437,-3.1494,-3.1613,-3.1667,-3.1639,-3.1851,-3.1787,-3.1797,-3.1802,-3.1869,-3.189,-3.1908,-3.1666,-3.1665,-3.1664,0,0,-3.1133,-3.1166,-3.1251,-3.1288,-3.1341,-3.1353,-3.1374,-3.1423,-3.1438,-3.1541,-3.152,-3.1586,-3.1708,-3.1748,-3.1785,-3.1939,-3.192,-3.1962,-3.2037,-3.2105,-3.2123,-3.2138,-3.2192,-3.2211,-3.1974,-3.1974,-3.1974,0,-3.1196,-3.13,-3.1299,-3.1378,-3.1417,-3.1391,-3.148,-3.1516,-3.159,-3.1618,-3.1586,-3.1737,-3.1774,-3.1901,-3.1939,-3.197,-3.1995,-3.1953,-3.212,-3.2135,-3.2149,-3.2201,-3.2221,-3.1979,-3.1978,-3.1978,-3.1977,0,-3.1374,-3.1447,-3.1511,-3.1578,-3.1625,-3.1709,-3.1723,-3.1771,-3.1766,-3.1783,-3.1889,-3.1932,-3.2007,-3.2038,-3.2035,-3.2167,-3.2147,-3.2118,-3.2059,-3.2175,-3.2223,-3.2243,-3.1985,-3.1984,-3.1982,-3.1981,0,0,-3.1548,-3.1615,-3.1638,-3.1669,-3.1726,-3.1783,-3.1868,-3.1938,-3.1979,-3.2032,-3.2103,-3.2207,-3.2179,-3.2221,-3.2223,-3.2283,-3.2401,-3.2246,-3.2248,-3.2272,-3.2548,-3.2568,-3.2591,-3.239,-3.2394,-3.2397,-3.2543,0,-3.1688,-3.1831,-3.1833,-3.1966,-3.2033,-3.2011,-3.2084,-3.2129,-3.2148,-3.221,-3.2233,-3.2305,-3.2264,-3.2289,-3.2348,-3.2374,-3.2457,-3.2364,-3.2458,-3.2461,-3.2441,-3.2617,-3.2638,-3.2774,-3.2562,-3.2565,-3.2568,0,-3.1869,-3.1924,-3.2062,-3.2109,-3.2138,-3.2203,-3.2268,-3.2328,-3.2379,-3.2389,-3.2436,-3.2429,-3.2518,-3.2458,-3.258,-3.2517,-3.2556,-3.2576,-3.2581,-3.2588,-3.2519,-3.2627,-3.2817,-3.2837,-3.2598,-3.2595,-3.2593,0,-3.198,-3.209,-3.2186,-3.2214,-3.2272,-3.2318,-3.2345,-3.2392,-3.2434,-3.2493,-3.2521,-3.2591,-3.2628,-3.2684,-3.2697,-3.2652,-3.282,-3.2761,-3.2831,-3.2831,-3.2865,-3.2862,-3.3062,-3.2894,-3.2894,-3.2893,-3.2893,0,-3.2135,-3.222,-3.2237,-3.2296,-3.2391,-3.2395,-3.2491,-3.2515,-3.2557,-3.2622,-3.261,-3.2672,-3.2686,-3.2753,-3.2765,-3.2864,-3.2882,-3.2894,-3.2895,-3.2893,-3.2891,-3.2917,-3.2907,-3.2899,-3.2898,-3.2897,-3.2896,0,-3.2274,-3.2289,-3.2392,-3.2438,-3.2452,-3.252,-3.2561,-3.2619,-3.2637,-3.272,-3.274,-3.2769,-3.2846,-3.2865,-3.2959,-3.2966,-3.3084,-3.3078,-3.3065,-3.3064,-3.3132,-3.3125,-3.3354,-3.3384,-3.3198,-3.32,-3.3201,0,-3.237,-3.2434,-3.2487,-3.2528,-3.2556,-3.2624,-3.2666,-3.2674,-3.2719,-3.2783,-3.2834,-3.2909,-3.2969,-3.3094,-3.3126,-3.3197,-3.3192,-3.3267,-3.3203,-3.3198,-3.3191,-3.3186,-3.3192,-3.3279,-3.3281,-3.3282,-3.3284,0,-3.2539,-3.2543,-3.2603,-3.2666,-3.2716,-3.2767,-3.2816,-3.2852,-3.2867,-3.2919,-3.2996,-3.3043,-3.3137,-3.3212,-3.3284,-3.3315,-3.3303,-3.3304,-3.3324,-3.3321,-3.331,-3.3315,-3.3096,-3.3298,-3.3297,-3.3296,-3.3295,-3.3294,-3.2658,-3.2714,-3.2759,-3.2827,-3.2864,-3.291,-3.2966,-3.299,-3.3054,-3.3128,-3.313,-3.3214,-3.3266,-3.3361,-3.3397,-3.3465,-3.3442,-3.3471,-3.3478,-3.3484,-3.3489,-3.3301,-3.3478,-3.3478,-3.3478,-3.3477,-3.3477,0,-3.2824,-3.2852,-3.2914,-3.2981,-3.3035,-3.3017,-3.3071,-3.3117,-3.319,-3.3238,-3.3297,-3.3386,-3.346,-3.3497,-3.357,-3.3617,-3.3614,-3.3636,-3.3632,-3.3639,-3.3506,-3.3481,-3.3638,-3.3638,-3.3638,-3.3638,-3.3638,-3.3638,-3.2917,-3.301,-3.302,-3.3132,-3.316,-3.324,-3.3272,-3.3315,-3.3353,-3.3452,-3.3511,-3.3534,-3.3579,-3.3655,-3.3722,-3.3732,-3.3759,-3.3784,-3.3791,-3.3665,-3.3649,-3.3633,-3.3609,-3.3791,-3.3791,-3.3918,-3.3919,-3.392]},{"header":{"parameterUnit":"m.s-1","parameterCategory":1,"la1":30.2991,"la2":30.254,"lo1":-89.0895,"lo2":-89.0444,"dy":0.0017,"dx":0.0017,"nx":28,"ny":28,"refTime":"2025-11-30T09:00:00:Z","depth":0,"parameterNumber":3,"parameterNumberName":"V-component_of_WINDS"},"data":[0,0,0,0,0,0,0,0,0,0,0,0,0,0,0,0,0,0,0,0,0,0,0,0,0,0,0,0,0,0,0,0,0,0,0,0,0,0,0,0,0,0,0,0,0,0,0,0,0,0,0,0,0,0,0,0,0,0,1.1184,1.119,0,1.1722,1.1728,1.1734,1.1864,1.1861,1.1857,1.1854,1.242,1.2438,1.2456,0,0,0,0,0,0,0,0,0,0,0,0,0,1.0292,1.0307,1.1184,1.1191,1.1197,1.1721,1.1728,1.1736,1.1865,1.1861,1.1856,1.1852,1.2414,1.2436,1.2458,0,0,0,0,0,0,0,0,0,0,0,0,0,1.0739,1.0312,1.1183,1.1324,1.1342,1.1719,1.1729,1.1738,1.1866,1.186,1.1855,1.185,1.2407,1.2434,1.2461,1.274,0,0,1.2546,1.2558,0,0,0,0,0,0,0,0,1.0714,1.0772,1.1297,1.1315,1.1336,1.172,1.1622,1.2074,1.1867,1.1668,1.1854,1.1847,1.2193,1.2238,1.2351,1.2766,1.2791,1.2548,1.2565,1.2577,1.2585,0,0,0,0,0,0,0,1.0683,1.075,1.1397,1.1305,1.1329,1.1369,1.1426,1.1708,1.1955,1.1685,1.1695,1.1756,1.2203,1.2324,1.2365,1.2799,1.2547,1.2572,1.2589,1.26,1.3485,1.3491,0,0,0,0,0,0,1.0624,1.0723,1.138,1.1413,1.1005,1.1389,1.1454,1.1603,1.1952,1.1999,1.176,1.176,1.2279,1.2333,1.2386,1.2744,1.2577,1.2602,1.2618,1.3478,1.3486,1.3494,0,0,0,0,0,0,1.0605,1.0681,1.1358,1.1072,1.1161,1.141,1.1577,1.1616,1.1737,1.2009,1.2055,1.1838,1.2277,1.2347,1.2653,1.2765,1.2615,1.264,1.347,1.3481,1.349,1.3457,0,0,0,0,0,0,1.0578,1.0673,1.0776,1.1072,1.1175,1.161,1.1583,1.1631,1.1783,1.1788,1.2093,1.2139,1.2278,1.2611,1.268,1.2801,1.2662,1.3461,1.3475,1.3487,1.3449,1.3465,1.3478,0,0,0,0,0,1.0546,1.0746,1.078,1.0859,1.1308,1.1615,1.1675,1.1826,1.1791,1.1901,1.2077,1.2129,1.274,1.2641,1.272,1.2851,1.3455,1.3471,1.3486,1.3443,1.3462,1.3478,0,0,0,0,0,0,1.046,1.0787,1.0829,1.1129,1.1343,1.1636,1.1779,1.184,1.2072,1.2068,1.2251,1.232,1.2617,1.2764,1.2647,1.3146,1.3098,1.313,1.3038,1.3059,1.3073,1.3034,1.2685,0,0,0,0,0,1.0474,1.0691,1.0968,1.1207,1.1312,1.1527,1.1666,1.1765,1.1996,1.2089,1.2287,1.2514,1.276,1.2917,1.3156,1.347,1.3546,1.3601,1.3615,1.3625,1.3653,1.3843,1.3874,1.3545,1.3545,1.3545,0,0,1.051,1.0716,1.0841,1.1195,1.1372,1.1601,1.1602,1.1841,1.2016,1.2127,1.2429,1.2583,1.285,1.3164,1.3313,1.3297,1.3761,1.3645,1.3652,1.3675,1.3862,1.3893,1.392,1.3556,1.3554,1.3552,0,0,1.0692,1.0864,1.1088,1.1266,1.1534,1.1677,1.173,1.2017,1.2123,1.2428,1.252,1.2733,1.3147,1.3337,1.3488,1.3751,1.3813,1.3824,1.3903,1.4085,1.4111,1.4135,1.4239,1.4273,1.385,1.385,1.385,0,1.0703,1.1044,1.1196,1.1433,1.1591,1.17,1.1934,1.2101,1.2435,1.2546,1.2521,1.3051,1.3237,1.3603,1.3668,1.3783,1.3859,1.3792,1.4094,1.412,1.4145,1.4246,1.4283,1.385,1.385,1.385,1.385,0,1.1051,1.1287,1.1436,1.1754,1.1929,1.2162,1.2358,1.2518,1.2604,1.2752,1.3068,1.3297,1.3589,1.3682,1.3767,1.4065,1.4048,1.4055,1.4013,1.4174,1.4273,1.4312,1.385,1.385,1.385,1.385,0,0,1.1191,1.1594,1.1647,1.1798,1.2105,1.2295,1.2539,1.2821,1.296,1.3188,1.3405,1.3757,1.377,1.3941,1.405,1.4209,1.4416,1.4201,1.421,1.424,1.4771,1.4767,1.4808,1.4457,1.4464,1.4471,1.4751,0,1.1417,1.185,1.1998,1.2361,1.2588,1.2698,1.2913,1.313,1.3277,1.3497,1.3662,1.3912,1.3904,1.4011,1.4172,1.4356,1.4527,1.4337,1.467,1.468,1.4605,1.4859,1.4854,1.5107,1.479,1.4796,1.4801,0,1.1737,1.197,1.2354,1.2643,1.2744,1.2932,1.321,1.3415,1.3668,1.3765,1.3959,1.4059,1.4329,1.4266,1.4647,1.4515,1.4661,1.4772,1.4786,1.4829,1.4754,1.4916,1.519,1.5231,1.4861,1.4857,1.4852,0,1.1813,1.2222,1.2508,1.2632,1.2973,1.3106,1.3255,1.3501,1.3665,1.391,1.402,1.4293,1.4444,1.4658,1.4833,1.4769,1.5202,1.5151,1.5299,1.5295,1.5389,1.5382,1.5699,1.5469,1.5469,1.5468,1.5467,0,1.2054,1.2287,1.2548,1.2724,1.2993,1.3165,1.3429,1.3586,1.3806,1.4022,1.4134,1.4336,1.455,1.4784,1.4922,1.5223,1.5289,1.5382,1.5418,1.5376,1.5366,1.5479,1.5469,1.5478,1.5476,1.5474,1.5472,0,1.2184,1.2366,1.2687,1.2985,1.3066,1.3252,1.3511,1.3692,1.3845,1.4118,1.4192,1.4436,1.4717,1.491,1.5271,1.5365,1.5694,1.5722,1.5607,1.5626,1.5767,1.5754,1.6173,1.6242,1.5958,1.596,1.5962,0,1.2329,1.2511,1.2829,1.298,1.3129,1.337,1.3539,1.3718,1.3891,1.4198,1.4345,1.4632,1.4872,1.5318,1.5532,1.5812,1.5854,1.5982,1.5897,1.5853,1.5868,1.5858,1.5882,1.5996,1.5998,1.6,1.6002,0,1.257,1.2653,1.2888,1.3159,1.3356,1.3579,1.3803,1.3922,1.4143,1.4333,1.462,1.4806,1.5176,1.5465,1.5767,1.593,1.6008,1.6026,1.6077,1.604,1.597,1.602,1.5652,1.6017,1.6015,1.6014,1.6013,1.6013,1.2719,1.289,1.3143,1.3405,1.3592,1.3801,1.3989,1.4166,1.4407,1.472,1.4813,1.5115,1.5375,1.5787,1.5955,1.62,1.6191,1.6262,1.6282,1.6299,1.6303,1.5924,1.6255,1.6255,1.6255,1.6254,1.6254,0,1.2974,1.3142,1.3381,1.3692,1.3901,1.3949,1.4203,1.4378,1.464,1.4872,1.5107,1.5444,1.5727,1.5964,1.6259,1.641,1.6455,1.6483,1.6478,1.6517,1.6289,1.622,1.6443,1.6443,1.6443,1.6443,1.6443,1.6443,1.3131,1.3427,1.3541,1.3936,1.4106,1.4399,1.4541,1.4739,1.4927,1.5296,1.553,1.5681,1.5921,1.6235,1.6501,1.6565,1.6672,1.6694,1.6767,1.6552,1.6531,1.651,1.6447,1.6714,1.6714,1.6976,1.6978,1.698]}]]